Regional Weather Roundup
Issued by NWS

Home | Current Version | Previous Version | Graphics & Text | Print | Product List | Glossary Off
Versions: 1 2 3 4 5 6 7 8 9 10 11 12 13 14 15 16 17 18 19 20 21 22 23 24 25 26 27 28 29 30 31 32 33 34 35 36 37 38 39 40 41 42 43 44 45 46 47 48 49 50

000
ASUS43 KTOP 220108
RWRKS

WEATHER ROUNDUP FOR KANSAS
NATIONAL WEATHER SERVICE GOODLAND KS
700 PM CST SUN DEC 21 2014

NOTE:  "FAIR" INDICATES FEW OR NO CLOUDS BELOW 12,000 FEET WITH NO
SIGNIFICANT WEATHER AND/OR OBSTRUCTIONS TO VISIBILITY.

KSZ001>006-013>018-027>032-041>047-220200-
NORTHWEST KANSAS

CITY           SKY/WX    TMP DP  RH WIND       PRES   REMARKS
GOODLAND       CLOUDY    44  32  62 SW5       29.54F
HAYS           CLOUDY    41  34  75 SE13      29.60F
HILL CITY      CLOUDY    42  37  82 S8        29.58R
RUSSELL        CLOUDY    42  41  96 S16       29.60F
$$

KSZ061>065-074>080-084>089-220200-
SOUTHWEST KANSAS

CITY           SKY/WX    TMP DP  RH WIND       PRES   REMARKS
DODGE CITY     CLOUDY    41  36  82 S16       29.60S
ELKHART          N/A    N/A N/A N/A MISG        N/A
GARDEN CITY    PTCLDY    40  36  86 SE13      29.56S WCI  32
GREAT BEND     CLOUDY    43  37  81 S12       29.64S
LIBERAL        PTCLDY    43  32  65 SE9       29.58S
PRATT          CLOUDY    43  41  93 S15       29.65S FOG
$$

KSZ066>073-081>083-090>101-220200-
SOUTHEAST KANSAS

CITY           SKY/WX    TMP DP  RH WIND       PRES   REMARKS
CHANUTE        CLOUDY    45  41  86 SE13      29.80F
COFFEYVILLE    CLOUDY    46  40  79 SE14      29.81F
HUTCHINSON     CLOUDY    45  42  89 S17       29.67F
MEDICINE LODGE   N/A     45  44  97 S12       29.66R
NEWTON         CLOUDY    43  37  81 S15G24    29.70F
PARSONS        CLOUDY    46  41  82 SE9       29.81F
WICHITA INTL   CLOUDY    45  42  89 S17       29.69F
WICHITA JABRA  CLOUDY    44  42  93 S15       29.70F
WICHITA MCCONL CLOUDY    44  42  94 SE16      29.71S
WINFIELD       CLOUDY    45  42  89 S17       29.73F
$$

KSZ007>012-019>026-033>040-048>060-102>105-220200-
NORTHEAST KANSAS

CITY           SKY/WX    TMP DP  RH WIND       PRES   REMARKS
CONCORDIA      CLOUDY    42  42 100 S14       29.66F FOG
EMPORIA        CLOUDY    42  42 100 S18G25    29.74F FOG
LAWRENCE       CLOUDY    44  40  85 S16       29.78F
MANHATTAN      CLOUDY    44  42  93 S16       29.70F
MARYSVILLE     DRIZZLE   43  41  93 S12G17    29.70S
OLATHE IND     CLOUDY    43  41  93 SE13      29.80F
OLATHE EXE     CLOUDY    43  42  97 SE13      29.79F
SALINA         CLOUDY    45  42  89 S9        29.68F
TOPEKA BILLARD CLOUDY    46  42  86 S14       29.76F
TOPEKA FORBES  CLOUDY    45  41  86 S15       29.75F
$$


USA.gov is the U.S. government's official web portal to all federal, state and local government web resources and services.